IBS1601 LEMD-GCLP

Flight info

Callsign IBS1601
Flight time 2h 30m
Altitude 35000
Route VTB DCT INPAN DCT CRISA DCT HIJ DCT SVL DCT CLANA DCT KORNO UN857 TERTO
Aircraft A21N/M-SDE3FGHIRWY/LB1

Departure

Time 2026-05-05 09:30
Airport Adolfo Suárez Madrid–Barajas Airport (LEMD)

Arrival

Time 2026-05-05 12:00
Airport Gran Canaria Airport (GCLP)
Time Latitude Longitude Altitude Speed Heading
2026-05-05 08:56 40.49346 -3.58965 2028 ft 0 kts 269°
2026-05-05 09:22 40.49346 -3.58953 2034 ft 4 kts 269°
2026-05-05 09:22 40.49346 -3.58923 2027 ft 2 kts 270°
2026-05-05 09:23 40.49351 -3.58894 2027 ft 4 kts 226°
2026-05-05 09:23 40.49370 -3.58883 2035 ft 3 kts 179°
2026-05-05 09:23 40.49393 -3.58883 2031 ft 2 kts 179°
2026-05-05 09:25 40.49382 -3.58883 2037 ft 3 kts 180°
2026-05-05 09:26 40.49356 -3.58883 2035 ft 5 kts 180°
2026-05-05 09:26 40.49316 -3.58882 2027 ft 7 kts 180°
2026-05-05 09:26 40.49262 -3.58882 2027 ft 9 kts 178°
2026-05-05 09:26 40.49240 -3.58803 2033 ft 11 kts 91°
2026-05-05 09:27 40.49239 -3.58693 2027 ft 13 kts 90°
2026-05-05 09:27 40.49240 -3.58565 2030 ft 15 kts 89°
2026-05-05 09:27 40.49240 -3.58426 2025 ft 16 kts 89°
2026-05-05 09:27 40.49242 -3.58271 2012 ft 17 kts 90°
2026-05-05 09:28 40.49242 -3.58106 2009 ft 19 kts 90°
2026-05-05 09:28 40.49242 -3.57930 2004 ft 20 kts 89°
2026-05-05 09:28 40.49243 -3.57743 1997 ft 21 kts 90°
2026-05-05 09:28 40.49256 -3.57587 1990 ft 15 kts 65°
2026-05-05 09:29 40.49323 -3.57480 1990 ft 15 kts 38°
2026-05-05 09:29 40.49373 -3.57452 1988 ft 0 kts
2026-05-05 09:29 40.49394 -3.57452 1988 ft 20 kts
2026-05-05 09:29 40.49772 -3.57454 1993 ft 88 kts 359°
2026-05-05 09:30 40.50579 -3.57461 1999 ft 141 kts 359°
2026-05-05 09:30 40.51661 -3.57470 2007 ft 173 kts 360°
2026-05-05 09:30 40.52889 -3.57473 2422 ft 175 kts
2026-05-05 09:30 40.54127 -3.57501 2931 ft 181 kts 359°
2026-05-05 09:31 40.55404 -3.57531 3430 ft 187 kts 360°
2026-05-05 09:31 40.56732 -3.57537 3903 ft 196 kts
2026-05-05 09:31 40.58140 -3.57535 4359 ft 209 kts 359°
2026-05-05 09:31 40.59583 -3.58037 4797 ft 226 kts 326°
2026-05-05 09:32 40.60626 -3.59659 5131 ft 246 kts 291°
2026-05-05 09:32 40.60830 -3.61957 5497 ft 264 kts 262°
2026-05-05 09:32 40.60304 -3.64299 6196 ft 270 kts 243°
2026-05-05 09:32 40.59172 -3.66260 6973 ft 273 kts 221°
2026-05-05 09:33 40.57556 -3.67622 7653 ft 280 kts 204°
2026-05-05 09:33 40.55659 -3.68221 8461 ft 283 kts 186°
2026-05-05 09:33 40.53685 -3.68352 9267 ft 285 kts 182°
2026-05-05 09:33 40.51683 -3.68439 10069 ft 289 kts 183°
2026-05-05 09:34 40.49649 -3.68541 10516 ft 305 kts 184°
2026-05-05 09:34 40.47428 -3.68671 10823 ft 326 kts 184°
2026-05-05 09:34 40.45127 -3.68819 11097 ft 345 kts 185°
2026-05-05 09:34 40.42722 -3.69555 11337 ft 360 kts 203°
2026-05-05 09:35 40.40423 -3.70921 11756 ft 371 kts 206°
2026-05-05 09:35 40.35702 -3.73832 13056 ft 377 kts 206°
2026-05-05 09:35 40.33313 -3.75264 13683 ft 379 kts 206°
2026-05-05 09:36 40.30903 -3.76691 14283 ft 381 kts 206°
2026-05-05 09:36 40.28476 -3.78122 14849 ft 383 kts 206°
2026-05-05 09:36 40.26041 -3.79555 15414 ft 385 kts 206°
2026-05-05 09:36 40.23590 -3.80995 15944 ft 387 kts 206°
2026-05-05 09:37 40.21125 -3.82443 16465 ft 389 kts 206°
2026-05-05 09:37 40.18652 -3.83895 16971 ft 391 kts 206°
2026-05-05 09:37 40.16165 -3.85354 17461 ft 393 kts 206°
2026-05-05 09:37 40.13666 -3.86817 17938 ft 395 kts 206°
2026-05-05 09:38 40.11154 -3.88288 18414 ft 396 kts 207°
2026-05-05 09:38 40.08640 -3.89758 18860 ft 398 kts 206°
2026-05-05 09:38 40.06094 -3.91246 19292 ft 400 kts 207°
2026-05-05 09:38 40.03545 -3.92735 19715 ft 403 kts 207°
2026-05-05 09:39 40.00982 -3.94231 20113 ft 405 kts 207°
2026-05-05 09:39 39.98407 -3.95733 20527 ft 407 kts 207°
2026-05-05 09:39 39.95813 -3.97243 20926 ft 409 kts 207°
2026-05-05 09:39 39.93208 -3.98760 21329 ft 411 kts 207°
2026-05-05 09:40 39.90585 -4.00286 21744 ft 414 kts 207°
2026-05-05 09:40 39.87952 -4.01816 22166 ft 416 kts 207°
2026-05-05 09:40 39.85302 -4.03355 22588 ft 418 kts 207°
2026-05-05 09:40 39.82636 -4.04899 22990 ft 420 kts 207°
2026-05-05 09:41 39.79959 -4.06451 23389 ft 423 kts 207°
2026-05-05 09:41 39.77265 -4.08011 23783 ft 425 kts 207°
2026-05-05 09:41 39.74558 -4.09578 24172 ft 427 kts 207°
2026-05-05 09:41 39.71832 -4.11152 24555 ft 429 kts 207°
2026-05-05 09:42 39.69095 -4.12732 24924 ft 431 kts 207°
2026-05-05 09:42 39.66349 -4.14317 25270 ft 434 kts 207°
2026-05-05 09:42 39.63580 -4.15915 25618 ft 436 kts 207°
2026-05-05 09:42 39.60802 -4.17516 25954 ft 438 kts 207°
2026-05-05 09:43 39.58008 -4.19124 26283 ft 440 kts 207°
2026-05-05 09:43 39.55207 -4.20733 26696 ft 439 kts 207°
2026-05-05 09:43 39.52456 -4.22312 27131 ft 438 kts 207°
2026-05-05 09:43 39.49680 -4.23905 27526 ft 436 kts 207°
2026-05-05 09:44 39.46905 -4.25496 27918 ft 436 kts 207°
2026-05-05 09:44 39.44139 -4.27080 28293 ft 435 kts 207°
2026-05-05 09:44 39.41374 -4.28663 28674 ft 434 kts 207°
2026-05-05 09:44 39.38622 -4.30236 29072 ft 432 kts 207°
2026-05-05 09:45 39.35872 -4.31807 29432 ft 432 kts 207°
2026-05-05 09:45 39.33126 -4.33376 29765 ft 431 kts 207°
2026-05-05 09:45 39.30385 -4.34941 30126 ft 430 kts 207°
2026-05-05 09:45 39.27656 -4.36496 30464 ft 429 kts 207°
2026-05-05 09:46 39.24925 -4.38052 30784 ft 429 kts 207°
2026-05-05 09:46 39.22195 -4.39605 31098 ft 428 kts 207°
2026-05-05 09:46 39.19469 -4.41155 31399 ft 428 kts 207°
2026-05-05 09:46 39.16745 -4.42701 31703 ft 428 kts 207°
2026-05-05 09:47 39.14025 -4.44245 32001 ft 427 kts 207°
2026-05-05 09:47 39.11300 -4.45790 32265 ft 427 kts 207°
2026-05-05 09:47 39.08585 -4.47330 32551 ft 426 kts 207°
2026-05-05 09:47 39.05873 -4.48865 32809 ft 426 kts 207°
2026-05-05 09:48 39.03165 -4.50397 33052 ft 426 kts 207°
2026-05-05 09:48 39.00451 -4.51930 33297 ft 425 kts 207°
2026-05-05 09:48 38.97738 -4.53462 33532 ft 425 kts 207°
2026-05-05 09:48 38.95072 -4.55082 33744 ft 422 kts 212°
2026-05-05 09:49 38.92661 -4.57189 33958 ft 418 kts 223°
2026-05-05 09:49 38.90548 -4.59730 34168 ft 416 kts 227°
2026-05-05 09:49 38.88506 -4.62360 34366 ft 415 kts 227°
2026-05-05 09:49 38.86470 -4.64991 34529 ft 416 kts 227°
2026-05-05 09:50 38.84427 -4.67612 34696 ft 416 kts 227°
2026-05-05 09:50 38.82370 -4.70232 34869 ft 416 kts 227°
2026-05-05 09:50 38.80311 -4.72844 35032 ft 417 kts 227°
2026-05-05 09:50 38.78245 -4.75457 35069 ft 417 kts 226°
2026-05-05 09:51 38.74124 -4.80666 35051 ft 416 kts 226°
2026-05-05 09:51 38.70000 -4.85873 35046 ft 416 kts 226°
2026-05-05 09:52 38.65874 -4.91072 35042 ft 416 kts 226°
2026-05-05 09:52 38.62441 -4.95391 35040 ft 417 kts 226°
2026-05-05 09:53 38.58309 -5.00581 35041 ft 416 kts 226°
2026-05-05 09:53 38.54174 -5.05763 35042 ft 417 kts 226°
2026-05-05 09:54 38.49766 -5.10575 35041 ft 422 kts 214°
2026-05-05 09:54 38.44511 -5.13977 35041 ft 423 kts 209°
2026-05-05 09:55 38.39193 -5.17220 35040 ft 424 kts 209°
2026-05-05 09:55 38.33930 -5.20476 35041 ft 424 kts 209°
2026-05-05 09:56 38.28634 -5.23757 35039 ft 423 kts 209°
2026-05-05 09:56 38.23340 -5.27032 35039 ft 423 kts 209°
2026-05-05 09:57 38.18039 -5.30307 35041 ft 424 kts 209°
2026-05-05 09:57 38.12741 -5.33572 35043 ft 423 kts 209°
2026-05-05 09:58 38.07450 -5.36830 35041 ft 423 kts 209°
2026-05-05 09:58 38.02149 -5.40088 35040 ft 423 kts 209°
2026-05-05 09:59 37.96855 -5.43336 35043 ft 423 kts 209°
2026-05-05 09:59 37.91548 -5.46587 35036 ft 424 kts 209°
2026-05-05 10:00 37.86235 -5.49837 35041 ft 424 kts 209°
2026-05-05 10:00 37.80925 -5.53080 35043 ft 424 kts 209°
2026-05-05 10:01 37.75618 -5.56317 35040 ft 424 kts 209°
2026-05-05 10:01 37.70300 -5.59553 35041 ft 424 kts 209°
2026-05-05 10:02 37.64982 -5.62784 35048 ft 424 kts 209°
2026-05-05 10:02 37.59662 -5.66012 35049 ft 424 kts 209°
2026-05-05 10:03 37.54337 -5.69237 35052 ft 424 kts 209°
2026-05-05 10:03 37.49021 -5.72453 35051 ft 424 kts 209°
2026-05-05 10:04 37.43712 -5.75712 35048 ft 423 kts 212°
2026-05-05 10:04 37.39030 -5.80104 35053 ft 419 kts 223°
2026-05-05 10:05 37.34609 -5.84884 35050 ft 419 kts 223°
2026-05-05 10:05 37.30167 -5.89638 35050 ft 420 kts 223°
2026-05-05 10:06 37.25707 -5.94370 35051 ft 420 kts 222°
2026-05-05 10:06 37.21243 -5.99102 35052 ft 420 kts 222°
2026-05-05 10:07 37.16768 -6.03843 35050 ft 421 kts 223°
2026-05-05 10:07 37.12289 -6.08576 35054 ft 422 kts 222°
2026-05-05 10:08 37.07802 -6.13305 35059 ft 422 kts 222°
2026-05-05 10:08 37.03305 -6.18041 35060 ft 422 kts 222°
2026-05-05 10:09 36.98811 -6.22770 35061 ft 423 kts 222°
2026-05-05 10:09 36.94304 -6.27503 35060 ft 423 kts 222°
2026-05-05 10:10 36.89825 -6.32199 35063 ft 424 kts 222°
2026-05-05 10:10 36.85306 -6.36925 35079 ft 424 kts 222°
2026-05-05 10:11 36.80785 -6.41650 35083 ft 424 kts 222°
2026-05-05 10:11 36.76254 -6.46377 35081 ft 425 kts 222°
2026-05-05 10:12 36.71724 -6.51094 35078 ft 425 kts 222°
2026-05-05 10:12 36.67187 -6.55815 35079 ft 425 kts 222°
2026-05-05 10:13 36.62651 -6.60519 35083 ft 425 kts 222°
2026-05-05 10:13 36.58105 -6.65231 35086 ft 425 kts 222°
2026-05-05 10:14 36.53555 -6.69940 35077 ft 425 kts 221°
2026-05-05 10:14 36.49009 -6.74639 35082 ft 425 kts 221°
2026-05-05 10:15 36.44457 -6.79334 35082 ft 425 kts 221°
2026-05-05 10:15 36.39902 -6.84024 35075 ft 425 kts 221°
2026-05-05 10:16 36.35344 -6.88711 35079 ft 425 kts 221°
2026-05-05 10:16 36.30785 -6.93392 35080 ft 425 kts 221°
2026-05-05 10:17 36.26223 -6.98069 35082 ft 426 kts 221°
2026-05-05 10:17 36.21652 -7.02747 35076 ft 426 kts 221°
2026-05-05 10:18 36.17076 -7.07421 35083 ft 426 kts 221°
2026-05-05 10:18 36.12501 -7.12086 35078 ft 426 kts 221°
2026-05-05 10:19 36.07951 -7.16714 35075 ft 426 kts 221°
2026-05-05 10:19 36.03370 -7.21375 35081 ft 427 kts 221°
2026-05-05 10:20 35.98780 -7.26037 35083 ft 427 kts 221°
2026-05-05 10:20 35.94174 -7.30703 35082 ft 429 kts 221°
2026-05-05 10:21 35.89560 -7.35375 35081 ft 429 kts 221°
2026-05-05 10:21 35.84942 -7.40042 35081 ft 429 kts 221°
2026-05-05 10:22 35.80316 -7.44696 35078 ft 429 kts 221°
2026-05-05 10:22 35.75679 -7.49321 35078 ft 429 kts 221°
2026-05-05 10:23 35.71035 -7.53950 35074 ft 429 kts 221°
2026-05-05 10:23 35.66393 -7.58569 35088 ft 429 kts 221°
2026-05-05 10:24 35.61747 -7.63188 35089 ft 429 kts 221°
2026-05-05 10:24 35.57102 -7.67797 35089 ft 429 kts 221°
2026-05-05 10:25 35.52456 -7.72402 35092 ft 429 kts 221°
2026-05-05 10:25 35.47805 -7.77000 35082 ft 429 kts 221°
2026-05-05 10:26 35.43153 -7.81593 35093 ft 429 kts 221°
2026-05-05 10:26 35.38541 -7.86170 35088 ft 429 kts 221°
2026-05-05 10:27 35.33892 -7.90835 35083 ft 429 kts 221°
2026-05-05 10:27 35.29292 -7.95429 35084 ft 430 kts 221°
2026-05-05 10:28 35.24661 -8.00045 35085 ft 429 kts 221°
2026-05-05 10:28 35.20028 -8.04659 35095 ft 430 kts 221°
2026-05-05 10:29 35.15386 -8.09273 35088 ft 430 kts 221°
2026-05-05 10:29 35.10739 -8.13885 35092 ft 430 kts 221°
2026-05-05 10:30 35.06088 -8.18493 35095 ft 431 kts 221°
2026-05-05 10:30 35.01433 -8.23095 35094 ft 431 kts 221°
2026-05-05 10:31 34.96782 -8.27691 35092 ft 431 kts 221°
2026-05-05 10:31 34.92118 -8.32288 35081 ft 431 kts 221°
2026-05-05 10:32 34.87458 -8.36879 35087 ft 431 kts 221°
2026-05-05 10:32 34.82795 -8.41464 35094 ft 431 kts 221°
2026-05-05 10:33 34.78135 -8.46044 35080 ft 431 kts 220°
2026-05-05 10:33 34.73469 -8.50618 35095 ft 431 kts 220°
2026-05-05 10:34 34.68796 -8.55192 35083 ft 431 kts 220°
2026-05-05 10:34 34.64120 -8.59762 35087 ft 432 kts 220°
2026-05-05 10:35 34.59439 -8.64332 35081 ft 432 kts 220°
2026-05-05 10:35 34.54759 -8.68893 35083 ft 432 kts 220°
2026-05-05 10:36 34.50107 -8.73419 35083 ft 432 kts 220°
2026-05-05 10:36 34.45420 -8.77976 35080 ft 432 kts 220°
2026-05-05 10:37 34.40722 -8.82512 35088 ft 432 kts 220°
2026-05-05 10:37 34.36013 -8.87037 35078 ft 432 kts 220°
2026-05-05 10:38 34.31305 -8.91559 35077 ft 432 kts 220°
2026-05-05 10:38 34.26599 -8.96073 35081 ft 432 kts 220°
2026-05-05 10:39 34.21887 -9.00583 35087 ft 432 kts 220°
2026-05-05 10:39 34.17175 -9.05085 35086 ft 432 kts 220°
2026-05-05 10:40 34.12453 -9.09590 35072 ft 432 kts 220°
2026-05-05 10:40 34.07739 -9.14089 35084 ft 432 kts 220°
2026-05-05 10:41 34.03819 -9.17824 35086 ft 432 kts 220°
2026-05-05 10:41 33.99099 -9.22309 35084 ft 432 kts 220°
2026-05-05 10:42 33.92031 -9.29018 35073 ft 431 kts 220°
2026-05-05 10:43 33.87319 -9.33481 35073 ft 431 kts 220°
2026-05-05 10:43 33.82605 -9.37941 35064 ft 431 kts 220°
2026-05-05 10:44 33.77889 -9.42393 35073 ft 431 kts 220°
2026-05-05 10:44 33.73173 -9.46841 35070 ft 431 kts 220°
2026-05-05 10:45 33.68455 -9.51284 35072 ft 431 kts 220°
2026-05-05 10:45 33.63735 -9.55725 35079 ft 431 kts 220°
2026-05-05 10:46 33.59014 -9.60156 35074 ft 431 kts 220°
2026-05-05 10:46 33.54293 -9.64585 35074 ft 431 kts 220°
2026-05-05 10:47 33.49572 -9.69010 35071 ft 430 kts 220°
2026-05-05 10:47 33.44850 -9.73426 35075 ft 430 kts 220°
2026-05-05 10:48 33.40132 -9.77833 35073 ft 430 kts 220°
2026-05-05 10:48 33.35410 -9.82234 35059 ft 430 kts 220°
2026-05-05 10:49 33.30721 -9.86602 35051 ft 430 kts 220°
2026-05-05 10:49 33.26009 -9.90987 35049 ft 429 kts 220°
2026-05-05 10:50 33.21295 -9.95372 35051 ft 429 kts 220°
2026-05-05 10:50 33.16580 -9.99743 35051 ft 429 kts 220°
2026-05-05 10:51 33.11875 -10.04100 35051 ft 428 kts 220°
2026-05-05 10:51 33.07172 -10.08445 35051 ft 427 kts 220°
2026-05-05 10:52 33.02477 -10.12781 35044 ft 427 kts 220°
2026-05-05 10:52 32.97781 -10.17101 35041 ft 426 kts 220°
2026-05-05 10:53 32.93092 -10.21410 35042 ft 425 kts 220°
2026-05-05 10:53 32.88406 -10.25714 35040 ft 425 kts 220°
2026-05-05 10:54 32.83732 -10.30002 35041 ft 424 kts 220°
2026-05-05 10:54 32.79055 -10.34283 35041 ft 424 kts 220°
2026-05-05 10:55 32.74413 -10.38524 35041 ft 424 kts 220°
2026-05-05 10:55 32.69744 -10.42788 35040 ft 423 kts 220°
2026-05-05 10:56 32.65080 -10.47046 35040 ft 423 kts 220°
2026-05-05 10:56 32.60415 -10.51299 35041 ft 423 kts 220°
2026-05-05 10:57 32.55756 -10.55542 35040 ft 422 kts 220°
2026-05-05 10:57 32.51093 -10.59771 35034 ft 422 kts 220°
2026-05-05 10:58 32.46421 -10.63990 35030 ft 422 kts 220°
2026-05-05 10:58 32.41758 -10.68219 35029 ft 422 kts 220°
2026-05-05 10:59 32.37099 -10.72432 35031 ft 421 kts 220°
2026-05-05 10:59 32.32466 -10.76625 35030 ft 421 kts 220°
2026-05-05 11:00 32.27808 -10.80835 35030 ft 421 kts 220°
2026-05-05 11:00 32.23151 -10.85032 35030 ft 421 kts 220°
2026-05-05 11:01 32.18491 -10.89223 35029 ft 421 kts 220°
2026-05-05 11:01 32.13834 -10.93412 35030 ft 421 kts 220°
2026-05-05 11:02 32.09177 -10.97592 35030 ft 421 kts 220°
2026-05-05 11:02 32.04516 -11.01769 35030 ft 420 kts 220°
2026-05-05 11:03 31.99861 -11.05938 35030 ft 420 kts 220°
2026-05-05 11:03 31.95218 -11.10090 35030 ft 417 kts 220°
2026-05-05 11:04 31.90626 -11.14190 35030 ft 417 kts 220°
2026-05-05 11:04 31.86006 -11.18310 35037 ft 417 kts 220°
2026-05-05 11:05 31.81380 -11.22430 35041 ft 417 kts 220°
2026-05-05 11:05 31.76753 -11.26543 35040 ft 417 kts 220°
2026-05-05 11:06 31.72137 -11.30658 35039 ft 416 kts 220°
2026-05-05 11:06 31.67520 -11.34777 35039 ft 416 kts 220°
2026-05-05 11:07 31.62905 -11.38887 35039 ft 416 kts 220°
2026-05-05 11:07 31.58291 -11.42991 35041 ft 416 kts 220°
2026-05-05 11:08 31.53670 -11.47097 35039 ft 416 kts 220°
2026-05-05 11:08 31.49051 -11.51197 35034 ft 416 kts 220°
2026-05-05 11:09 31.44433 -11.55290 35030 ft 416 kts 220°
2026-05-05 11:09 31.39811 -11.59376 35030 ft 416 kts 220°
2026-05-05 11:10 31.35186 -11.63464 35030 ft 416 kts 220°
2026-05-05 11:10 31.30564 -11.67542 35031 ft 416 kts 220°
2026-05-05 11:11 31.25942 -11.71618 35030 ft 416 kts 220°
2026-05-05 11:11 31.21320 -11.75687 35030 ft 416 kts 220°
2026-05-05 11:12 31.16698 -11.79755 35030 ft 416 kts 220°
2026-05-05 11:12 31.12077 -11.83814 35039 ft 416 kts 220°
2026-05-05 11:13 31.07478 -11.87848 35040 ft 416 kts 220°
2026-05-05 11:13 31.02847 -11.91904 35039 ft 416 kts 220°
2026-05-05 11:14 30.98220 -11.95952 35042 ft 416 kts 220°
2026-05-05 11:14 30.93597 -11.99991 35039 ft 416 kts 220°
2026-05-05 11:15 30.88977 -12.04022 35039 ft 414 kts 220°
2026-05-05 11:15 30.84369 -12.08040 35038 ft 414 kts 220°
2026-05-05 11:16 30.79755 -12.12060 35040 ft 414 kts 220°
2026-05-05 11:16 30.75143 -12.16067 35045 ft 414 kts 220°
2026-05-05 11:17 30.70538 -12.20071 35051 ft 413 kts 220°
2026-05-05 11:17 30.65927 -12.24070 35051 ft 414 kts 220°
2026-05-05 11:18 30.61309 -12.28070 35049 ft 414 kts 220°
2026-05-05 11:18 30.56698 -12.32061 35051 ft 414 kts 220°
2026-05-05 11:19 30.52081 -12.36052 35051 ft 414 kts 220°
2026-05-05 11:19 30.47464 -12.40033 35050 ft 414 kts 220°
2026-05-05 11:20 30.42840 -12.44003 35051 ft 414 kts 220°
2026-05-05 11:20 30.38217 -12.47970 35051 ft 413 kts 220°
2026-05-05 11:21 30.33595 -12.51932 35049 ft 414 kts 220°
2026-05-05 11:21 30.28971 -12.55894 35050 ft 413 kts 220°
2026-05-05 11:22 30.24346 -12.59846 35050 ft 414 kts 220°
2026-05-05 11:22 30.19721 -12.63797 35051 ft 413 kts 220°
2026-05-05 11:23 30.15092 -12.67745 35060 ft 413 kts 220°
2026-05-05 11:23 30.10466 -12.71689 35060 ft 413 kts 220°
2026-05-05 11:24 30.05848 -12.75638 35061 ft 413 kts 220°
2026-05-05 11:24 30.01231 -12.79586 35058 ft 413 kts 220°
2026-05-05 11:25 29.96610 -12.83528 35060 ft 413 kts 220°
2026-05-05 11:25 29.91993 -12.87461 35061 ft 413 kts 220°
2026-05-05 11:26 29.87375 -12.91396 35060 ft 413 kts 220°
2026-05-05 11:26 29.82757 -12.95323 35059 ft 412 kts 220°
2026-05-05 11:27 29.78146 -12.99242 35059 ft 412 kts 220°
2026-05-05 11:27 29.73561 -13.03129 35063 ft 412 kts 220°
2026-05-05 11:28 29.68947 -13.07039 35070 ft 412 kts 220°
2026-05-05 11:28 29.64332 -13.10939 35067 ft 412 kts 220°
2026-05-05 11:29 29.59716 -13.14844 35071 ft 412 kts 220°
2026-05-05 11:29 29.55104 -13.18742 35067 ft 412 kts 220°
2026-05-05 11:30 29.50487 -13.22638 35074 ft 412 kts 220°
2026-05-05 11:30 29.46658 -13.25864 35074 ft 410 kts 220°
2026-05-05 11:31 29.42046 -13.29746 35084 ft 411 kts 219°
2026-05-05 11:31 29.37436 -13.33623 35083 ft 411 kts 219°
2026-05-05 11:32 29.32819 -13.37500 35080 ft 411 kts 219°
2026-05-05 11:32 29.28206 -13.41369 35078 ft 411 kts 219°
2026-05-05 11:33 29.23591 -13.45234 35087 ft 411 kts 219°
2026-05-05 11:33 29.18980 -13.49095 35082 ft 411 kts 219°
2026-05-05 11:34 29.14507 -13.53138 35084 ft 409 kts 224°
2026-05-05 11:34 29.10210 -13.57400 35079 ft 409 kts 224°
2026-05-05 11:35 29.05909 -13.61670 35082 ft 409 kts 224°
2026-05-05 11:35 29.01593 -13.65926 35082 ft 410 kts 224°
2026-05-05 11:36 28.97271 -13.70177 35084 ft 410 kts 224°
2026-05-05 11:36 28.92954 -13.74434 35084 ft 410 kts 224°
2026-05-05 11:37 28.88634 -13.78683 35083 ft 410 kts 224°
2026-05-05 11:37 28.84311 -13.82933 35079 ft 410 kts 224°
2026-05-05 11:38 28.80019 -13.87146 35082 ft 410 kts 223°
2026-05-05 11:38 28.75686 -13.91393 35083 ft 411 kts 223°
2026-05-05 11:39 28.71352 -13.95633 35074 ft 409 kts 223°
2026-05-05 11:39 28.69210 -13.97730 34737 ft 406 kts 224°
2026-05-05 11:39 28.67071 -13.99822 34133 ft 406 kts 223°
2026-05-05 11:39 28.64929 -14.01915 33423 ft 408 kts 223°
2026-05-05 11:40 28.62768 -14.04028 32671 ft 410 kts 223°
2026-05-05 11:40 28.60598 -14.06142 31893 ft 413 kts 223°
2026-05-05 11:40 28.58432 -14.08309 30986 ft 415 kts 227°
2026-05-05 11:40 28.56602 -14.10851 30002 ft 417 kts 235°
2026-05-05 11:41 28.54928 -14.13557 29062 ft 420 kts 236°
2026-05-05 11:41 28.53257 -14.16297 28136 ft 424 kts 236°
2026-05-05 11:41 28.51563 -14.19053 27289 ft 426 kts 236°
2026-05-05 11:41 28.49858 -14.21802 26491 ft 426 kts 235°
2026-05-05 11:42 28.48146 -14.24548 25728 ft 425 kts 235°
2026-05-05 11:42 28.46440 -14.27281 24997 ft 423 kts 235°
2026-05-05 11:42 28.44735 -14.30006 24253 ft 422 kts 235°
2026-05-05 11:42 28.43041 -14.32719 23514 ft 420 kts 235°
2026-05-05 11:43 28.41350 -14.35422 22794 ft 419 kts 235°
2026-05-05 11:43 28.39666 -14.38114 22048 ft 418 kts 235°
2026-05-05 11:43 28.37980 -14.40802 21293 ft 415 kts 235°
2026-05-05 11:43 28.36314 -14.43457 20569 ft 410 kts 235°
2026-05-05 11:44 28.34668 -14.46077 19861 ft 404 kts 235°
2026-05-05 11:44 28.33050 -14.48656 19201 ft 398 kts 235°
2026-05-05 11:44 28.31456 -14.51191 18570 ft 392 kts 235°
2026-05-05 11:44 28.29906 -14.53661 17973 ft 385 kts 235°
2026-05-05 11:45 28.28343 -14.56149 17388 ft 379 kts 235°
2026-05-05 11:45 28.26848 -14.58532 16813 ft 374 kts 235°
2026-05-05 11:45 28.25342 -14.60928 16225 ft 373 kts 235°
2026-05-05 11:45 28.23817 -14.63354 15660 ft 373 kts 235°
2026-05-05 11:46 28.22334 -14.65713 15131 ft 372 kts 235°
2026-05-05 11:46 28.20813 -14.68130 14574 ft 372 kts 235°
2026-05-05 11:46 28.19312 -14.70510 14017 ft 371 kts 235°
2026-05-05 11:46 28.17809 -14.72892 13482 ft 371 kts 235°
2026-05-05 11:47 28.16309 -14.75266 12957 ft 370 kts 235°
2026-05-05 11:47 28.14811 -14.77635 12396 ft 370 kts 235°
2026-05-05 11:47 28.13333 -14.79973 11884 ft 369 kts 235°
2026-05-05 11:47 28.11852 -14.82316 11476 ft 361 kts 235°
2026-05-05 11:48 28.09038 -14.86762 11038 ft 334 kts 235°
2026-05-05 11:48 28.07712 -14.88857 10873 ft 321 kts 235°
2026-05-05 11:48 28.06434 -14.90873 10722 ft 309 kts 235°
2026-05-05 11:49 28.05209 -14.92806 10584 ft 297 kts 235°
2026-05-05 11:49 28.04026 -14.94672 10365 ft 288 kts 235°
2026-05-05 11:49 28.02859 -14.96511 9932 ft 288 kts 235°
2026-05-05 11:49 28.01692 -14.98351 9505 ft 288 kts 234°
2026-05-05 11:50 28.00528 -15.00183 9129 ft 285 kts 234°
2026-05-05 11:50 27.99371 -15.02004 8785 ft 285 kts 234°
2026-05-05 11:50 27.98213 -15.03826 8455 ft 285 kts 234°
2026-05-05 11:50 27.97057 -15.05645 8147 ft 284 kts 234°
2026-05-05 11:51 27.95903 -15.07458 7837 ft 284 kts 234°
2026-05-05 11:51 27.94753 -15.09264 7549 ft 282 kts 234°
2026-05-05 11:51 27.93609 -15.11062 7241 ft 282 kts 234°
2026-05-05 11:51 27.92464 -15.12861 6933 ft 281 kts 234°
2026-05-05 11:52 27.91323 -15.14652 6618 ft 281 kts 234°
2026-05-05 11:52 27.90180 -15.16443 6294 ft 281 kts 234°
2026-05-05 11:52 27.89040 -15.18230 5964 ft 279 kts 234°
2026-05-05 11:52 27.87912 -15.19995 5637 ft 275 kts 234°
2026-05-05 11:53 27.86794 -15.21745 5335 ft 274 kts 234°
2026-05-05 11:53 27.85681 -15.23489 5041 ft 273 kts 234°
2026-05-05 11:53 27.84570 -15.25231 4760 ft 272 kts 234°
2026-05-05 11:53 27.83466 -15.26963 4453 ft 271 kts 234°
2026-05-05 11:54 27.82358 -15.28694 4147 ft 272 kts 234°
2026-05-05 11:54 27.81254 -15.30420 3847 ft 269 kts 233°
2026-05-05 11:54 27.80165 -15.32120 3543 ft 267 kts 233°
2026-05-05 11:54 27.79079 -15.33817 3236 ft 267 kts 233°
2026-05-05 11:55 27.77996 -15.35508 2963 ft 263 kts 233°
2026-05-05 11:55 27.76939 -15.37156 2794 ft 254 kts 234°
2026-05-05 11:55 27.75929 -15.38728 2774 ft 237 kts 234°
2026-05-05 11:55 27.75021 -15.40182 2831 ft 219 kts 239°
2026-05-05 11:56 27.74536 -15.41779 2787 ft 216 kts 270°
2026-05-05 11:56 27.74874 -15.43403 2826 ft 215 kts 302°
2026-05-05 11:56 27.75914 -15.44572 2795 ft 213 kts 332°
2026-05-05 11:56 27.77269 -15.45227 2787 ft 212 kts 346°
2026-05-05 11:57 27.78711 -15.45236 2536 ft 209 kts 16°
2026-05-05 11:57 27.80059 -15.44654 2331 ft 207 kts 25°
2026-05-05 11:57 27.81341 -15.43965 2204 ft 196 kts 25°
2026-05-05 11:57 27.82544 -15.43372 2073 ft 184 kts 22°
2026-05-05 11:58 27.83708 -15.42855 1843 ft 174 kts 22°
2026-05-05 11:58 27.84784 -15.42379 1631 ft 163 kts 22°
2026-05-05 11:58 27.85785 -15.41936 1425 ft 143 kts 22°
2026-05-05 11:58 27.86685 -15.41536 1213 ft 138 kts 22°
2026-05-05 11:59 27.87577 -15.41143 1027 ft 137 kts 22°
2026-05-05 11:59 27.88467 -15.40749 843 ft 138 kts 22°
2026-05-05 11:59 27.89348 -15.40341 685 ft 137 kts 23°
2026-05-05 11:59 27.90233 -15.39932 513 ft 136 kts 20°
2026-05-05 12:00 27.91116 -15.39558 335 ft 136 kts 22°
2026-05-05 12:00 27.91995 -15.39181 122 ft 134 kts 21°
2026-05-05 12:00 27.92813 -15.38825 70 ft 110 kts 21°
2026-05-05 12:00 27.93320 -15.38601 66 ft 49 kts 21°
2026-05-05 12:01 27.93559 -15.38495 59 ft 31 kts 18°
2026-05-05 12:01 27.93740 -15.38428 64 ft 27 kts 11°
2026-05-05 12:01 27.93895 -15.38432 71 ft 17 kts 351°
2026-05-05 12:01 27.94004 -15.38454 77 ft 17 kts 334°
2026-05-05 12:02 27.94064 -15.38544 80 ft 13 kts 290°
2026-05-05 12:02 27.94053 -15.38633 88 ft 13 kts 209°
2026-05-05 12:02 27.93963 -15.38674 90 ft 15 kts 201°
2026-05-05 12:02 27.93874 -15.38721 91 ft 8 kts 236°
2026-05-05 12:03 27.93876 -15.38744 89 ft 3 kts 297°
2026-05-05 12:03 27.93887 -15.38770 92 ft 4 kts 293°
2026-05-05 12:03 27.93892 -15.38784 90 ft 1 kts 291°
2026-05-05 12:03 27.93897 -15.38799 90 ft 3 kts 291°
2026-05-05 12:04 27.93898 -15.38801 90 ft 0 kts 291°